Simultaneous Nadir Overpasses (SNOs) Predictions

Prediction of SNOs near US between AQUA and NPP Satellite Orbit:

Table of predicted SNOs near US for the next 10.0 days since TLE Epoch: 12/6/2019
Index Date (AQUA) Time (AQUA) AQUA Lat,Lon Date (NPP) Time (NPP) NPP Lat,Lon Distance(km) Time Diff (sec)
1 12/08/2019 10:11:54 26.72,-124.98 12/08/2019 10:05:25 26.88,-125.69 72.87 389
2 12/11/2019 07:18:34 49.93, -75.97 12/11/2019 07:20:03 50.36, -78.18 165.01 89
3 12/11/2019 08:57:27 49.94,-100.69 12/11/2019 09:01:30 50.52,-103.48 209.45 243
4 12/13/2019 18:16:45 50.00, -80.19 12/13/2019 18:10:19 49.72, -81.73 114.74 386
5 12/13/2019 19:55:38 49.99,-104.91 12/13/2019 19:51:47 49.61,-107.06 159.95 231
6 12/13/2019 21:30:48 36.70,-124.99 12/13/2019 21:29:26 36.23,-127.56 235.15 82
7 12/16/2019 09:23:52 21.74,-113.83 12/16/2019 09:16:01 21.82,-114.29 47.77 471




NCC Satellite Simultaneous Nadir Overpasses (SNOs) Prediction Service
